Time,TemperatureF,DewpointF,PressureIn,WindDirection,WindDirectionDegrees,WindSpeedMPH,WindSpeedGustMPH,Humidity,HourlyPrecipIn,Conditions,Clouds,dailyrainin,SoftwareType,DateUTC
2013-11-15 00:05:00,27.7,22.6,30.24,WNW,292,0.0,-999.0,81,-99.99,,,0.00,Acu-Link.com,2013-11-15 05:05:00,
2013-11-15 00:20:00,27.3,22.5,30.25,West,270,0.0,-999.0,82,-99.99,,,0.00,Acu-Link.com,2013-11-15 05:20:00,
2013-11-15 00:36:00,27.1,22.3,30.25,West,270,0.0,-999.0,82,-99.99,,,0.00,Acu-Link.com,2013-11-15 05:36:00,
2013-11-15 00:51:00,27.1,22.3,30.25,West,270,0.0,-999.0,82,-99.99,,,0.00,Acu-Link.com,2013-11-15 05:51:00,
2013-11-15 01:06:00,27.3,22.5,30.25,West,270,0.0,-999.0,82,-99.99,,,0.00,Acu-Link.com,2013-11-15 06:06:00,
2013-11-15 01:21:00,27.5,23.6,30.23,WNW,292,0.0,-999.0,85,-99.99,,,0.00,Acu-Link.com,2013-11-15 06:21:00,
2013-11-15 01:36:00,27.5,23.6,30.23,WNW,292,0.0,-999.0,85,-99.99,,,0.00,Acu-Link.com,2013-11-15 06:36:00,
2013-11-15 01:51:00,27.7,23.5,30.24,WNW,292,0.0,-999.0,84,-99.99,,,0.00,Acu-Link.com,2013-11-15 06:51:00,
2013-11-15 02:06:00,27.7,23.2,30.24,WNW,292,0.0,-999.0,83,-99.99,,,0.00,Acu-Link.com,2013-11-15 07:06:00,
2013-11-15 02:21:00,27.5,23.0,30.24,WNW,292,0.0,-999.0,83,-99.99,,,0.00,Acu-Link.com,2013-11-15 07:21:00,
2013-11-15 02:36:00,27.9,23.7,30.24,South,180,0.0,-999.0,84,-99.99,,,0.00,Acu-Link.com,2013-11-15 07:36:00,
2013-11-15 02:52:00,27.7,23.5,30.23,WNW,292,0.0,-999.0,84,-99.99,,,0.00,Acu-Link.com,2013-11-15 07:52:00,
2013-11-15 03:07:00,27.9,23.4,30.23,WNW,292,0.0,-999.0,83,-99.99,,,0.00,Acu-Link.com,2013-11-15 08:07:00,
2013-11-15 03:22:00,27.9,24.0,30.23,East,90,0.0,-999.0,85,-99.99,,,0.00,Acu-Link.com,2013-11-15 08:22:00,
2013-11-15 03:37:00,28.2,24.3,30.23,ENE,67,0.0,-999.0,85,-99.99,,,0.00,Acu-Link.com,2013-11-15 08:37:00,
2013-11-15 03:52:00,28.6,24.7,30.23,ESE,112,0.0,-999.0,85,-99.99,,,0.00,Acu-Link.com,2013-11-15 08:52:00,
2013-11-15 04:07:00,29.1,25.2,30.22,SE,135,0.0,-999.0,85,-99.99,,,0.00,Acu-Link.com,2013-11-15 09:07:00,
2013-11-15 04:22:00,29.5,25.6,30.23,ESE,112,0.0,-999.0,85,-99.99,,,0.00,Acu-Link.com,2013-11-15 09:22:00,
2013-11-15 04:37:00,29.8,25.6,30.23,ESE,112,0.0,-999.0,84,-99.99,,,0.00,Acu-Link.com,2013-11-15 09:37:00,
2013-11-15 04:52:00,30.0,25.8,30.22,West,270,0.0,-999.0,84,-99.99,,,0.00,Acu-Link.com,2013-11-15 09:52:00,
2013-11-15 05:07:00,30.2,25.7,30.23,West,270,0.0,-999.0,83,-99.99,,,0.00,Acu-Link.com,2013-11-15 10:07:00,
2013-11-15 05:23:00,30.4,26.2,30.23,West,270,0.0,-999.0,84,-99.99,,,0.00,Acu-Link.com,2013-11-15 10:23:00,
2013-11-15 05:38:00,30.6,26.1,30.23,West,270,0.0,-999.0,83,-99.99,,,0.00,Acu-Link.com,2013-11-15 10:38:00,
2013-11-15 05:53:00,30.9,26.6,30.23,West,270,0.0,-999.0,84,-99.99,,,0.00,Acu-Link.com,2013-11-15 10:53:00,
2013-11-15 06:09:00,31.3,26.7,30.23,West,270,0.0,-999.0,83,-99.99,,,0.00,Acu-Link.com,2013-11-15 11:09:00,
2013-11-15 06:24:00,31.6,27.0,30.23,West,270,0.0,-999.0,83,-99.99,,,0.00,Acu-Link.com,2013-11-15 11:24:00,
2013-11-15 06:39:00,32.0,27.4,30.23,West,270,0.0,-999.0,83,-99.99,,,0.00,Acu-Link.com,2013-11-15 11:39:00,
2013-11-15 06:54:00,32.0,27.1,30.23,WSW,247,0.0,-999.0,82,-99.99,,,0.00,Acu-Link.com,2013-11-15 11:54:00,
2013-11-15 07:09:00,32.2,27.6,30.24,East,90,0.0,-999.0,83,-99.99,,,0.00,Acu-Link.com,2013-11-15 12:09:00,
2013-11-15 07:24:00,32.4,27.8,30.25,West,270,0.0,-999.0,83,-99.99,,,0.00,Acu-Link.com,2013-11-15 12:24:00,
2013-11-15 07:39:00,33.1,28.8,30.25,North,0,0.0,-999.0,84,-99.99,,,0.00,Acu-Link.com,2013-11-15 12:39:00,
2013-11-15 07:54:00,34.2,29.6,30.25,WNW,292,0.0,-999.0,83,-99.99,,,0.00,Acu-Link.com,2013-11-15 12:54:00,
2013-11-15 08:09:00,35.6,30.1,30.26,West,270,0.0,-999.0,80,-99.99,,,0.00,Acu-Link.com,2013-11-15 13:09:00,
2013-11-15 08:25:00,37.2,31.0,30.26,SSE,157,0.0,-999.0,78,-99.99,,,0.00,Acu-Link.com,2013-11-15 13:25:00,
2013-11-15 08:40:00,39.0,32.1,30.25,ESE,112,0.0,-999.0,76,-99.99,,,0.00,Acu-Link.com,2013-11-15 13:40:00,
2013-11-15 08:55:00,40.6,32.6,30.26,ESE,112,0.0,-999.0,73,-99.99,,,0.00,Acu-Link.com,2013-11-15 13:55:00,
2013-11-15 09:10:00,42.6,31.7,30.25,ESE,112,0.0,-999.0,65,-99.99,,,0.00,Acu-Link.com,2013-11-15 14:10:00,
2013-11-15 09:25:00,44.6,32.8,30.25,ESE,112,0.0,-999.0,63,-99.99,,,0.00,Acu-Link.com,2013-11-15 14:25:00,
2013-11-15 09:40:00,46.8,31.9,30.25,ESE,112,0.0,-999.0,56,-99.99,,,0.00,Acu-Link.com,2013-11-15 14:40:00,
2013-11-15 09:55:00,49.6,29.7,30.25,West,270,0.0,-999.0,46,-99.99,,,0.00,Acu-Link.com,2013-11-15 14:55:00,
2013-11-15 10:10:00,50.9,31.9,30.24,East,90,0.0,-999.0,48,-99.99,,,0.00,Acu-Link.com,2013-11-15 15:10:00,
2013-11-15 10:25:00,52.7,31.4,30.24,NE,45,0.0,-999.0,44,-99.99,,,0.00,Acu-Link.com,2013-11-15 15:25:00,
2013-11-15 10:40:00,53.4,32.0,30.23,ESE,112,0.0,-999.0,44,-99.99,,,0.00,Acu-Link.com,2013-11-15 15:40:00,
2013-11-15 10:56:00,54.0,32.6,30.23,ESE,112,0.0,-999.0,44,-99.99,,,0.00,Acu-Link.com,2013-11-15 15:56:00,
2013-11-15 11:11:00,54.7,34.3,30.23,NW,315,0.0,-999.0,46,-99.99,,,0.00,Acu-Link.com,2013-11-15 16:11:00,
2013-11-15 11:26:00,55.4,34.4,30.22,East,90,0.0,-999.0,45,-99.99,,,0.00,Acu-Link.com,2013-11-15 16:26:00,
2013-11-15 11:41:00,55.6,34.6,30.21,South,180,0.0,-999.0,45,-99.99,,,0.00,Acu-Link.com,2013-11-15 16:41:00,
2013-11-15 11:56:00,55.9,32.5,30.20,ESE,112,0.0,-999.0,41,-99.99,,,0.00,Acu-Link.com,2013-11-15 16:56:00,
2013-11-15 12:11:00,56.3,32.9,30.20,ESE,112,0.0,-999.0,41,-99.99,,,0.00,Acu-Link.com,2013-11-15 17:11:00,
2013-11-15 12:26:00,57.2,32.5,30.19,ESE,112,0.0,-999.0,39,-99.99,,,0.00,Acu-Link.com,2013-11-15 17:26:00,
2013-11-15 12:41:00,57.6,32.8,30.18,ESE,112,0.0,-999.0,39,-99.99,,,0.00,Acu-Link.com,2013-11-15 17:41:00,
2013-11-15 12:56:00,58.1,32.6,30.17,South,180,0.0,-999.0,38,-99.99,,,0.00,Acu-Link.com,2013-11-15 17:56:00,
2013-11-15 13:12:00,58.5,33.0,30.16,ESE,112,0.0,-999.0,38,-99.99,,,0.00,Acu-Link.com,2013-11-15 18:12:00,
2013-11-15 13:27:00,58.6,35.0,30.14,NNE,22,0.0,-999.0,41,-99.99,,,0.00,Acu-Link.com,2013-11-15 18:27:00,
2013-11-15 13:42:00,58.5,34.3,30.14,NNE,22,0.0,-999.0,40,-99.99,,,0.00,Acu-Link.com,2013-11-15 18:42:00,
2013-11-15 13:57:00,59.9,34.2,30.12,ENE,67,0.0,-999.0,38,-99.99,,,0.00,Acu-Link.com,2013-11-15 18:57:00,
2013-11-15 14:12:00,60.6,36.8,30.11,ESE,112,0.0,-999.0,41,-99.99,,,0.00,Acu-Link.com,2013-11-15 19:12:00,
2013-11-15 14:27:00,61.0,36.5,30.11,ESE,112,0.0,-999.0,40,-99.99,,,0.00,Acu-Link.com,2013-11-15 19:27:00,
2013-11-15 14:42:00,59.9,37.4,30.10,SSW,202,0.0,-999.0,43,-99.99,,,0.00,Acu-Link.com,2013-11-15 19:42:00,
2013-11-15 14:57:00,59.7,38.3,30.10,East,90,0.0,-999.0,45,-99.99,,,0.00,Acu-Link.com,2013-11-15 19:57:00,
2013-11-15 15:12:00,59.2,39.5,30.10,East,90,0.0,-999.0,48,-99.99,,,0.00,Acu-Link.com,2013-11-15 20:12:00,
2013-11-15 15:28:00,59.0,38.8,30.11,West,270,0.0,-999.0,47,-99.99,,,0.00,Acu-Link.com,2013-11-15 20:28:00,
2013-11-15 15:43:00,59.0,39.3,30.10,East,90,0.0,-999.0,48,-99.99,,,0.00,Acu-Link.com,2013-11-15 20:43:00,
2013-11-15 15:58:00,58.6,39.5,30.10,ESE,112,0.0,-999.0,49,-99.99,,,0.00,Acu-Link.com,2013-11-15 20:58:00,
2013-11-15 16:13:00,58.3,38.7,30.11,ESE,112,0.0,-999.0,48,-99.99,,,0.00,Acu-Link.com,2013-11-15 21:13:00,
2013-11-15 16:28:00,57.7,39.2,30.11,ESE,112,0.0,-999.0,50,-99.99,,,0.00,Acu-Link.com,2013-11-15 21:28:00,
2013-11-15 16:43:00,57.0,40.0,30.11,South,180,0.0,-999.0,53,-99.99,,,0.00,Acu-Link.com,2013-11-15 21:43:00,
2013-11-15 16:59:00,56.3,40.8,30.10,ESE,112,0.0,-999.0,56,-99.99,,,0.00,Acu-Link.com,2013-11-15 21:59:00,
2013-11-15 17:14:00,55.8,43.8,30.10,West,270,1.1,-999.0,64,-99.99,,,0.00,Acu-Link.com,2013-11-15 22:14:00,
2013-11-15 17:29:00,54.3,44.7,30.10,East,90,0.0,-999.0,70,-99.99,,,0.00,Acu-Link.com,2013-11-15 22:29:00,
2013-11-15 17:44:00,52.9,45.9,30.11,West,270,0.0,-999.0,77,-99.99,,,0.00,Acu-Link.com,2013-11-15 22:44:00,
2013-11-15 17:59:00,52.2,46.2,30.11,West,270,0.0,-999.0,80,-99.99,,,0.00,Acu-Link.com,2013-11-15 22:59:00,
2013-11-15 18:14:00,51.4,46.1,30.12,SSE,157,0.0,-999.0,82,-99.99,,,0.00,Acu-Link.com,2013-11-15 23:14:00,
2013-11-15 18:29:00,51.1,47.1,30.12,South,180,0.0,-999.0,86,-99.99,,,0.00,Acu-Link.com,2013-11-15 23:29:00,
2013-11-15 18:45:00,50.7,47.0,30.13,WNW,292,0.0,-999.0,87,-99.99,,,0.01,Acu-Link.com,2013-11-15 23:45:00,
2013-11-15 19:00:00,50.4,47.0,30.13,West,270,0.0,-999.0,88,-99.99,,,0.01,Acu-Link.com,2013-11-16 00:00:00,
2013-11-15 19:15:00,50.0,46.6,30.12,WSW,247,0.0,-999.0,88,-99.99,,,0.06,Acu-Link.com,2013-11-16 00:15:00,
2013-11-15 19:30:00,49.3,46.2,30.12,West,270,0.0,-999.0,89,-99.99,,,0.06,Acu-Link.com,2013-11-16 00:30:00,
2013-11-15 19:45:00,48.7,45.6,30.12,SSE,157,0.0,-999.0,89,-99.99,,,0.06,Acu-Link.com,2013-11-16 00:45:00,
2013-11-15 20:00:00,48.2,44.8,30.13,NE,45,0.0,-999.0,88,-99.99,,,0.08,Acu-Link.com,2013-11-16 01:00:00,
2013-11-15 20:30:00,47.7,47.2,30.15,WSW,247,0.0,-999.0,98,-99.99,,,0.08,Acu-Link.com,2013-11-16 01:30:00,
2013-11-15 20:45:00,47.3,46.8,30.16,East,90,1.1,-999.0,98,-99.99,,,0.09,Acu-Link.com,2013-11-16 01:45:00,
2013-11-15 21:01:00,47.1,46.6,30.15,East,90,0.0,-999.0,98,-99.99,,,0.16,Acu-Link.com,2013-11-16 02:01:00,
2013-11-15 21:31:00,46.8,46.3,30.15,ESE,112,0.0,-999.0,98,-99.99,,,0.17,Acu-Link.com,2013-11-16 02:31:00,
2013-11-15 21:46:00,46.8,46.3,30.15,WSW,247,0.0,-999.0,98,-99.99,,,0.17,Acu-Link.com,2013-11-16 02:46:00,
2013-11-15 22:01:00,46.6,46.1,30.14,ENE,67,0.0,-999.0,98,-99.99,,,0.17,Acu-Link.com,2013-11-16 03:01:00,
2013-11-15 22:16:00,46.6,46.1,30.14,SSW,202,0.0,-999.0,98,-99.99,,,0.17,Acu-Link.com,2013-11-16 03:16:00,
2013-11-15 22:31:00,46.6,46.1,30.15,East,90,0.0,-999.0,98,-99.99,,,0.17,Acu-Link.com,2013-11-16 03:31:00,
2013-11-15 22:46:00,46.8,46.3,30.14,West,270,0.0,-999.0,98,-99.99,,,0.17,Acu-Link.com,2013-11-16 03:46:00,
2013-11-15 23:01:00,46.9,46.4,30.14,West,270,0.0,-999.0,98,-99.99,,,0.17,Acu-Link.com,2013-11-16 04:01:00,
2013-11-15 23:17:00,46.9,46.4,30.15,NW,315,0.0,-999.0,98,-99.99,,,0.17,Acu-Link.com,2013-11-16 04:17:00,
2013-11-15 23:32:00,46.9,46.4,30.14,ENE,67,0.0,-999.0,98,-99.99,,,0.17,Acu-Link.com,2013-11-16 04:32:00,
2013-11-15 23:47:00,47.1,46.6,30.14,West,270,0.0,-999.0,98,-99.99,,,0.17,Acu-Link.com,2013-11-16 04:47:00,